Weather History for KBGM - April, 2013

Change the Weather History Date:

Tuesday, April 2, 2013

  Actual Average Record
Temperature  
Mean Temperature 26 °F 39 °F  
Max Temperature 33 °F 48 °F 79 °F (2010)
Min Temperature 19 °F 31 °F 19 °F (2013)
Degree Days  
Heating Degree Days 39 26  
Month to date heating degree days 71 52  
Since 1 July heating degree days 6026 6248  
Cooling Degree Days 0 0  
Month to date cooling degree days 0 0  
Year to date cooling degree days 0 0  
Moisture  
Dew Point 13 °F    
Average Humidity 57    
Maximum Humidity 77    
Minimum Humidity 36    
Precipitation  
Precipitation 0.02 in 0.12 in 1.57 in (2005)
Month to date precipitation 0.18 0.23  
Year to date precipitation 6.63 7.98  
Snow  
Snow 0.50 in 0.30 in 1.80 in (1972)
Month to date snowfall 0.7 0.5  
Since 1 July snowfall 68.9 79.5  
Snow Depth 1.00 in    
Sea Level Pressure  
Sea Level Pressure 29.97 in    
Wind  
Wind Speed 13 mph (WNW)    
Max Wind Speed 20 mph    
Max Gust Speed 38 mph    
Visibility 9 miles    
Events Snow    
T = Trace of Precipitation, MM = Missing Value Source: NWS Daily Summary

Daily Weather History Graph

Daily Weather History Graph

Search for Another Location

Airport or City:

Trip Planner

Search our weather history database for the weather conditions in past years. The results will help you decide how hot, cold, wet, or windy it might be!

Date:

Astronomy

Apr. 02, 2013 Rise Set
Actual Time 6:44 AM EDT 7:31 PM EDT
Civil Twilight 6:16 AM EDT 7:59 PM EDT
Nautical Twilight 5:42 AM EDT 8:33 PM EDT
Astronomical Twilight 5:07 AM EDT 9:08 PM EDT
Moon 1:38 AM EDT (4/2) 11:28 AM EDT (4/2)
Length of Visible Light 13h 43m
Length of Day
12h 46m
Waning Gibbous, 56% of the Moon is Illuminated
Apr 2
Waning Gibbous
Apr 3
Last Quarter
Apr 10
New
Apr 18
First Quarter
Apr 25
Full

Hourly Weather History & Observations

Time (EDT) Temp. Windchill Dew Point Humidity Pressure Visibility Wind Dir Wind Speed Gust Speed Precip Events Conditions
12:53 AM 24.1 °F 13.7 °F 19.0 °F 81% 29.92 in 3.0 mi NNW 10.4 mph - 0.00 in Snow Light Snow
1:00 AM 23.0 °F 10.6 °F 17.6 °F 80% 29.86 in 2.0 mi NW 13.8 mph 23.0 mph 0.00 in Snow Light Snow
1:22 AM 21.2 °F 10.1 °F 19.4 °F 93% 29.87 in 0.8 mi NW 10.4 mph - 0.01 in Snow Light Snow
1:37 AM 21.2 °F 9.5 °F 19.4 °F 93% 29.87 in 2.0 mi WNW 11.5 mph 20.7 mph 0.01 in Snow Light Snow
1:39 AM 21.2 °F 10.9 °F 19.4 °F 93% 29.87 in 3.0 mi WNW 9.2 mph - 0.01 in Snow Light Snow
1:53 AM 21.9 °F 13.4 °F 18.0 °F 85% 29.92 in 9.0 mi WNW 6.9 mph - 0.02 in   Overcast
2:53 AM 21.9 °F 13.4 °F 16.0 °F 78% 29.91 in 10.0 mi WNW 6.9 mph - N/A   Mostly Cloudy
3:18 AM 21.2 °F 11.7 °F 15.8 °F 80% 29.86 in 6.0 mi NW 8.1 mph - 0.00 in Snow Light Snow
3:53 AM 21.0 °F 12.4 °F 15.1 °F 78% 29.91 in 6.0 mi WNW 6.9 mph 17.3 mph 0.00 in Snow Light Snow
4:04 AM 21.2 °F 11.7 °F 15.8 °F 80% 29.85 in 9.0 mi West 8.1 mph - 0.00 in   Mostly Cloudy
4:53 AM 21.0 °F 10.6 °F 12.0 °F 68% 29.92 in 10.0 mi West 9.2 mph - 0.00 in   Mostly Cloudy
5:53 AM 19.0 °F 9.0 °F 12.0 °F 74% 29.94 in 10.0 mi West 8.1 mph - N/A   Partly Cloudy
6:53 AM 19.0 °F 6.1 °F 10.9 °F 71% 29.96 in 10.0 mi West 12.7 mph - N/A   Partly Cloudy
7:53 AM 19.9 °F 7.9 °F 10.0 °F 65% 29.97 in 9.0 mi West 11.5 mph - N/A   Clear
8:53 AM 23.0 °F 12.4 °F 10.0 °F 58% 29.99 in 10.0 mi West 10.4 mph 20.7 mph N/A   Clear
9:53 AM 25.0 °F 11.7 °F 6.1 °F 45% 30.00 in 10.0 mi WNW 17.3 mph 32.2 mph N/A   Partly Cloudy
10:53 AM 25.0 °F 12.6 °F 8.1 °F 49% 30.01 in 10.0 mi West 15.0 mph 27.6 mph N/A   Overcast
11:53 AM 28.0 °F 15.7 °F 10.0 °F 47% 30.00 in 10.0 mi West 17.3 mph 23.0 mph N/A   Overcast
12:53 PM 30.0 °F 18.7 °F 12.0 °F 47% 29.99 in 10.0 mi WNW 16.1 mph 25.3 mph 0.00 in   Overcast
1:53 PM 30.0 °F 18.3 °F 12.0 °F 47% 29.99 in 10.0 mi West 17.3 mph - N/A   Overcast
2:53 PM 30.9 °F 19.8 °F 12.9 °F 47% 29.97 in 10.0 mi West 16.1 mph - N/A   Overcast
3:53 PM 30.9 °F 21.2 °F 10.0 °F 42% 29.97 in 10.0 mi WNW 12.7 mph 21.9 mph N/A   Overcast
4:53 PM 30.9 °F 20.7 °F 9.0 °F 40% 29.98 in 10.0 mi NW 13.8 mph 23.0 mph N/A   Mostly Cloudy
5:53 PM 32.0 °F 20.8 °F 8.1 °F 37% 30.00 in 10.0 mi NW 17.3 mph 29.9 mph N/A   Overcast
6:53 PM 30.0 °F 19.1 °F 8.1 °F 40% 30.03 in 10.0 mi West 15.0 mph 24.2 mph N/A   Overcast
7:53 PM 28.0 °F 15.7 °F 10.0 °F 47% 30.05 in 10.0 mi West 17.3 mph 32.2 mph N/A   Overcast
9:53 PM 28.0 °F 17.5 °F 10.9 °F 49% 30.07 in 10.0 mi NW 12.7 mph 23.0 mph N/A   Overcast
10:53 PM 26.1 °F 14.0 °F 14.0 °F 60% 30.08 in 10.0 mi WNW 15.0 mph 23.0 mph N/A   Overcast
11:12 PM 26.6 °F 17.5 °F 15.8 °F 64% 30.01 in 10.0 mi West 9.2 mph 21.9 mph N/A   Mostly Cloudy
11:19 PM 26.6 °F 17.5 °F 15.8 °F 64% 30.01 in 10.0 mi WNW 9.2 mph 18.4 mph N/A   Mostly Cloudy
11:26 PM 26.6 °F 17.5 °F 15.8 °F 64% 30.01 in 10.0 mi WNW 9.2 mph 18.4 mph N/A   Mostly Cloudy
11:46 PM 24.8 °F 16.9 °F 15.8 °F 69% 30.01 in 10.0 mi WNW 6.9 mph 18.4 mph N/A   Scattered Clouds
11:53 PM 25.0 °F 14.8 °F 15.1 °F 66% 30.07 in 10.0 mi WNW 10.4 mph - N/A   Scattered Clouds